This is the latest recevied weather packets stored in our database for station/object N7AWM. If no packets are shown the sender has not sent any weather packets the latest 10 day(s).
| Time | Temp. | Humidity | Pressure | Rain* | Wind** | Luminosity | Snow |
|---|---|---|---|---|---|---|---|
| 1778104790 | 23.89° C | 32% | 1008.2 hPa | 0 mm | - | - | - |
| 1778103950 | 23.89° C | 40% | 1008.2 hPa | 0 mm | - | - | - |
| 1778103110 | 24.44° C | 33% | 1008.2 hPa | 0 mm | - | - | - |
| 1778102270 | 24.44° C | 33% | 1008.4 hPa | 0 mm | - | - | - |
| 1778101430 | 25.56° C | 31% | 1008.1 hPa | 0 mm | - | - | - |
| 1778100590 | 26.11° C | 35% | 1007.9 hPa | 0 mm | - | - | - |
| 1778099750 | 26.11° C | 32% | 1007.9 hPa | 0 mm | - | - | - |
| 1778098910 | 26.67° C | 35% | 1007.9 hPa | 0 mm | - | - | - |
| 1778098070 | 26.11° C | 35% | 1008 hPa | 0 mm | - | - | - |
| 1778097230 | 25.56° C | 33% | 1007.9 hPa | 0 mm | - | - | - |
| 1778096391 | 26.11° C | 34% | 1008.1 hPa | 0 mm | - | - | - |
| 1778095551 | 26.11° C | 32% | 1008.3 hPa | 0 mm | - | - | - |
| 1778094711 | 25.56° C | 33% | 1008.2 hPa | 0 mm | - | - | - |
| 1778093871 | 25.56° C | 36% | 1008.1 hPa | 0 mm | - | - | - |
| 1778093031 | 26.11° C | 33% | 1008.3 hPa | 0 mm | - | - | - |
| 1778092191 | 25.56° C | 36% | 1008.3 hPa | 0 mm | - | - | - |
| 1778091351 | 25.56° C | 39% | 1008.4 hPa | 0 mm | - | - | - |
| 1778090511 | 24.44° C | 39% | 1008.5 hPa | 0 mm | - | - | - |
| 1778089671 | 25° C | 36% | 1008.5 hPa | 0 mm | - | - | - |
| 1778088831 | 24.44° C | 39% | 1008.5 hPa | 0 mm | - | - | - |
| 1778087991 | 23.89° C | 36% | 1008.7 hPa | 0 mm | - | - | - |
| 1778087151 | 23.89° C | 38% | 1008.7 hPa | 0 mm | - | - | - |
| 1778086311 | 23.33° C | 41% | 1008.7 hPa | 0 mm | - | - | - |
| 1778085471 | 23.33° C | 43% | 1008.7 hPa | 0 mm | - | - | - |
| 1778084632 | 23.33° C | 42% | 1008.7 hPa | 0 mm | - | - | - |
* Rain latest hour (hover to see other rain measurements)
** Current wind speed in m/s (hover to see current wind gust speed)